Precipitable_Water
0.70 0.72 0.74 0.74 0.73 0.72 0.70 0.67 0.63 0.59 0.57 0.56 0.56 0.56 0.58 0.57 0.55 0.53 0.52 0.50 0.49 0.47 0.46 0.45 0.46 0.43 0.40 0.39 0.37 0.39 0.38 0.36
0.71 0.74 0.75 0.73 0.73 0.68 0.67 0.67 0.66 0.62 0.57 0.52 0.53 0.53 0.56 0.56 0.57 0.57 0.56 0.53 0.51 0.48 0.46 0.45 0.46 0.45 0.45 0.44 0.42 0.40 0.39 0.41
0.65 0.71 0.75 0.75 0.72 0.69 0.68 0.66 0.65 0.63 0.63 0.61 0.58 0.57 0.57 0.58 0.59 0.59 0.57 0.53 0.52 0.49 0.47 0.47 0.48 0.47 0.46 0.46 0.44 0.41 0.42 0.44
0.62 0.66 0.70 0.71 0.70 0.69 0.68 0.68 0.67 0.65 0.65 0.63 0.62 0.61 0.59 0.55 0.56 0.56 0.54 0.54 0.52 0.50 0.50 0.50 0.50 0.51 0.49 0.49 0.48 0.46 0.42 0.45
0.61 0.64 0.66 0.67 0.69 0.71 0.70 0.69 0.67 0.67 0.65 0.62 0.58 0.55 0.51 0.54 0.54 0.55 0.53 0.54 0.51 0.51 0.51 0.53 0.54 0.54 0.52 0.51 0.51 0.48 0.45 0.41
0.58 0.64 0.67 0.68 0.70 0.69 0.70 0.70 0.69 0.68 0.66 0.64 0.62 0.59 0.59 0.58 0.55 0.51 0.50 0.50 0.50 0.51 0.53 0.54 0.53 0.54 0.52 0.51 0.49 0.47 0.46 0.43
0.53 0.63 0.66 0.67 0.68 0.68 0.69 0.69 0.69 0.70 0.69 0.68 0.63 0.57 0.54 0.51 0.49 0.46 0.47 0.48 0.50 0.53 0.54 0.55 0.55 0.54 0.51 0.49 0.48 0.46 0.44 0.44
0.45 0.52 0.59 0.62 0.62 0.66 0.68 0.69 0.69 0.71 0.70 0.67 0.59 0.54 0.51 0.48 0.47 0.46 0.47 0.49 0.52 0.55 0.56 0.56 0.54 0.52 0.49 0.47 0.45 0.44 0.43 0.40
0.47 0.50 0.54 0.58 0.61 0.66 0.70 0.71 0.72 0.72 0.70 0.62 0.56 0.53 0.51 0.51 0.51 0.52 0.53 0.54 0.56 0.58 0.56 0.53 0.50 0.48 0.45 0.44 0.42 0.40 0.37 0.35
0.52 0.56 0.59 0.62 0.65 0.69 0.72 0.73 0.74 0.74 0.65 0.58 0.56 0.55 0.52 0.52 0.53 0.55 0.56 0.57 0.57 0.55 0.52 0.49 0.46 0.44 0.42 0.41 0.38 0.34 0.31 0.30
0.56 0.60 0.63 0.67 0.70 0.72 0.76 0.77 0.74 0.63 0.59 0.58 0.56 0.55 0.55 0.54 0.53 0.53 0.55 0.56 0.54 0.51 0.47 0.44 0.42 0.40 0.38 0.33 0.30 0.27 0.25 0.24
0.61 0.62 0.66 0.70 0.74 0.76 0.76 0.69 0.62 0.61 0.62 0.61 0.57 0.54 0.53 0.53 0.53 0.54 0.55 0.53 0.49 0.45 0.41 0.39 0.38 0.34 0.30 0.26 0.23 0.21 0.18 0.18
0.64 0.66 0.67 0.69 0.69 0.71 0.74 0.73 0.71 0.69 0.66 0.59 0.54 0.53 0.52 0.51 0.52 0.53 0.52 0.48 0.44 0.39 0.38 0.34 0.31 0.26 0.23 0.20 0.18 0.17 0.15 0.14
0.67 0.68 0.69 0.71 0.71 0.72 0.71 0.67 0.64 0.63 0.58 0.53 0.51 0.51 0.51 0.51 0.52 0.50 0.47 0.43 0.39 0.36 0.30 0.25 0.24 0.22 0.19 0.18 0.16 0.13 0.13 0.14
0.67 0.67 0.68 0.69 0.70 0.68 0.67 0.63 0.59 0.57 0.54 0.50 0.48 0.49 0.50 0.50 0.49 0.47 0.43 0.39 0.34 0.27 0.23 0.23 0.21 0.20 0.18 0.16 0.14 0.11 0.12 0.13
0.53 0.58 0.61 0.62 0.62 0.61 0.60 0.59 0.56 0.53 0.49 0.48 0.48 0.50 0.50 0.48 0.45 0.42 0.38 0.33 0.27 0.23 0.20 0.20 0.19 0.17 0.16 0.15 0.14 0.11 0.11 0.12
0.48 0.50 0.53 0.53 0.53 0.53 0.53 0.55 0.56 0.54 0.50 0.48 0.50 0.49 0.48 0.45 0.41 0.37 0.31 0.25 0.22 0.19 0.16 0.16 0.15 0.15 0.15 0.15 0.14 0.11 0.12 0.12
0.44 0.45 0.48 0.49 0.49 0.53 0.54 0.55 0.58 0.55 0.54 0.52 0.49 0.49 0.44 0.39 0.36 0.29 0.23 0.20 0.17 0.15 0.15 0.14 0.12 0.13 0.14 0.15 0.14 0.12 0.12 0.12
0.45 0.46 0.50 0.53 0.55 0.55 0.58 0.59 0.61 0.60 0.59 0.52 0.49 0.46 0.39 0.34 0.28 0.22 0.19 0.16 0.13 0.13 0.13 0.12 0.11 0.13 0.15 0.15 0.14 0.12 0.12 0.12
Wind_Speed
25 24 24 24 23 23 21 21 21 21 21 20 20 20 19 19 19 19 19 18 19 19 19 20 20 21 22 23 23 24 24 26
26 26 25 25 25 24 23 22 21 21 22 22 22 22 21 21 20 20 20 20 20 20 21 22 23 23 24 24 25 26 27 28
27 27 27 27 27 25 24 23 22 22 22 23 23 22 22 22 21 20 20 20 21 21 22 23 24 25 25 25 26 27 28 29
30 29 29 29 28 27 25 24 23 23 22 22 22 23 22 22 22 21 21 21 22 22 23 24 26 26 27 27 28 28 29 30
33 32 31 30 29 27 25 24 24 23 24 23 23 23 23 23 23 22 22 23 23 24 25 26 27 28 28 29 29 30 30 31
35 35 33 31 30 28 26 25 24 23 24 24 23 23 23 23 23 23 23 24 24 25 26 27 28 28 29 30 31 31 32 32
34 34 34 32 31 29 28 25 24 23 23 23 23 22 22 22 23 23 23 24 25 26 27 29 30 31 32 32 33 33 34 34
33 34 34 34 32 30 28 26 24 23 23 23 22 21 21 21 22 23 23 25 26 28 29 31 32 32 32 32 32 32 33 34
31 32 33 33 32 31 28 26 24 24 24 23 21 20 20 20 22 23 25 26 27 28 29 29 29 30 31 31 31 32 34 35
25 27 29 30 30 29 28 26 25 24 23 21 20 20 20 20 22 23 24 25 26 26 27 29 30 30 30 30 31 33 35 36
23 24 25 27 27 27 26 25 24 21 20 20 20 20 21 21 22 22 22 24 25 26 28 29 28 29 29 30 32 34 35 36
23 23 24 24 25 24 23 22 21 20 20 21 21 20 21 22 21 21 22 23 24 26 27 27 27 28 29 31 32 34 35 35
22 23 22 23 23 22 22 24 25 24 21 19 19 18 19 19 20 21 23 23 24 25 25 26 27 28 29 30 31 33 34 33
20 21 23 24 23 21 20 20 19 18 18 18 17 18 18 19 20 22 23 23 24 25 25 25 26 27 28 29 30 30 29 29
21 21 22 24 23 21 19 19 19 18 18 17 18 18 19 20 21 21 22 23 23 24 24 25 25 25 26 26 26 27 26 27
20 19 19 19 19 19 18 18 18 18 18 18 18 18 19 19 20 20 21 21 22 23 23 23 24 24 23 23 23 24 25 26
21 20 21 21 22 21 21 20 21 21 19 19 19 18 19 19 19 19 20 20 21 22 22 22 21 21 21 21 22 23 24 26
23 23 25 25 25 25 23 22 21 20 21 19 18 17 18 18 18 19 19 20 21 21 21 20 19 19 19 20 21 23 25 27
24 23 23 24 25 24 24 23 21 21 19 17 17 16 16 17 17 18 19 19 19 19 18 18 17 17 18 20 22 24 26 29
Wind_Direction
247 245 244 241 243 246 250 256 256 258 256 257 259 263 266 270 274 277 280 284 288 290 293 295 297 296 296 294 293 293 293 293
249 247 243 240 242 244 247 253 256 256 255 255 257 261 264 269 273 277 280 282 286 288 291 293 295 296 295 295 293 294 294 296
251 248 244 240 241 242 246 250 254 257 257 258 259 259 264 268 271 276 278 282 286 289 292 293 294 295 296 296 296 295 294 297
251 248 244 242 240 241 244 247 251 255 258 260 259 259 263 265 269 273 278 282 286 289 292 294 295 296 296 296 296 296 295 296
251 246 244 241 240 240 243 246 250 255 258 258 259 261 263 265 266 271 276 281 285 289 292 295 296 297 298 297 297 296 296 295
250 246 243 241 239 238 240 244 249 254 257 258 260 262 261 263 266 271 276 281 286 289 293 295 297 297 297 297 297 298 297 296
249 245 243 239 237 238 239 242 246 251 256 259 260 258 259 262 267 272 277 282 286 291 294 296 297 298 298 297 297 297 297 296
245 241 238 236 236 236 238 241 244 249 255 259 258 258 260 263 267 273 278 284 288 292 294 296 297 298 299 298 299 299 299 299
241 238 233 232 233 235 236 238 242 249 253 256 256 257 260 265 271 276 280 284 288 292 295 298 299 300 301 300 300 300 300 300
239 232 227 226 229 230 233 237 244 251 250 250 252 256 262 268 274 280 283 287 291 294 297 298 300 301 302 302 302 303 303 302
235 225 223 225 225 228 234 238 244 242 244 248 251 258 265 270 276 281 284 289 292 295 299 300 301 302 304 304 303 304 305 304
227 224 222 226 222 231 234 230 231 239 247 252 255 261 266 272 275 281 286 290 294 296 299 300 301 303 305 305 305 306 307 306
231 227 224 222 225 228 235 240 242 249 252 253 255 260 267 274 279 283 288 292 296 298 299 301 302 304 306 308 308 309 309 309
231 229 229 229 230 234 237 234 234 238 245 253 257 266 270 275 279 283 288 293 297 299 301 303 304 306 308 310 310 312 313 313
227 234 236 230 231 234 232 234 239 245 247 256 263 270 274 278 282 285 290 294 298 300 302 302 305 307 309 312 314 315 316 317
241 240 233 232 229 230 232 237 242 245 252 259 265 270 275 279 283 286 289 294 297 300 302 303 305 308 311 314 316 318 319 321
246 242 239 237 236 238 242 246 247 246 252 259 265 268 273 280 283 286 290 295 298 301 303 305 306 308 313 317 319 321 323 324
252 249 247 244 242 241 244 244 245 250 250 255 260 266 274 277 281 286 290 296 298 301 303 304 307 309 314 318 321 323 324 325
254 253 248 244 241 241 241 244 246 249 242 247 255 263 269 275 280 286 291 294 298 300 302 305 306 309 315 320 322 324 325 326